[[{"header":{"parameterUnit":"m.s-1","parameterCategory":1,"la1":30.2992,"la2":30.254,"lo1":-89.0895,"lo2":-89.0443,"dy":0.0025,"dx":0.0025,"nx":19,"ny":19,"refTime":"2026-05-19T03:00:00:Z","depth":0,"parameterNumber":2,"parameterNumberName":"U-component_of_WINDS"},"data":[0,0,0,-5.176,-5.176,-5.1759,-5.1759,-5.1776,-5.1776,0,0,0,0,0,0,0,0,0,0,0,-5.177,-5.1771,-5.176,-5.176,-5.1759,-5.1759,-5.1776,-5.1776,0,0,0,0,0,0,0,0,0,0,0,-5.177,-5.1771,-5.1771,-5.176,-5.1759,-5.1759,-5.1776,-5.177,0,0,0,0,0,0,0,0,0,0,-5.1768,-5.1787,-5.1771,-5.1771,-5.176,-5.1759,-5.1759,-5.177,-5.1771,-5.1784,0,-5.1798,0,-5.1787,-5.1779,-5.1779,0,0,0,-5.1753,-5.1787,-5.1777,-5.1771,-5.176,-5.1759,-5.1758,-5.177,-5.1771,-5.1785,-5.1798,-5.1798,-5.1788,-5.1779,-5.1779,-5.1877,-5.1878,0,0,-5.1753,-5.1776,-5.1777,-5.1779,-5.1779,-5.1758,-5.1758,-5.1771,-5.1786,-5.1798,-5.1798,-5.1788,-5.1779,-5.1779,-5.1876,-5.1877,0,0,0,-5.1758,-5.1776,-5.1766,-5.1778,-5.1777,-5.1758,-5.1758,-5.1785,-5.178,-5.1798,-5.1788,-5.1779,-5.178,-5.1875,-5.1876,-5.1936,0,0,0,-5.1758,-5.1779,-5.1766,-5.178,-5.1777,-5.1781,-5.1773,-5.1779,-5.178,-5.1788,-5.1779,-5.178,-5.1874,-5.1876,-5.1933,-5.196,0,0,0,-5.1767,-5.178,-5.1783,-5.1782,-5.1782,-5.178,-5.1775,-5.1779,-5.1774,-5.1779,-5.178,-5.1874,-5.1876,-5.1929,-5.1955,-5.1991,0,0,0,-5.1784,-5.1838,-5.1785,-5.1841,-5.1782,-5.1818,-5.1775,-5.1801,-5.1812,-5.1779,-5.1874,-5.1876,-5.1928,-5.1951,-5.1987,-5.2023,-5.2041,0,0,-5.1864,-5.1848,-5.188,-5.1832,-5.1882,-5.1816,-5.1875,-5.1865,-5.1845,-5.1868,-5.187,-5.1934,-5.1954,-5.199,-5.2137,-5.2151,0,0,0,-5.1913,-5.1935,-5.1944,-5.1955,-5.1948,-5.1944,-5.1922,-5.1918,-5.1936,-5.1861,-5.1957,-5.1969,-5.1989,-5.2005,-5.2017,-5.2032,-5.1885,-5.1885,-5.1885,-5.2058,-5.203,-5.2079,-5.2051,-5.2063,-5.2039,-5.2046,-5.2037,-5.2006,-5.2029,-5.2035,-5.2127,-5.2147,-5.2156,-5.2172,-5.2054,-5.2054,-5.2054,-5.2054,-5.2172,-5.2198,-5.2156,-5.2188,-5.2158,-5.2186,-5.2166,-5.2143,-5.2164,-5.2121,-5.2137,-5.2089,-5.2172,-5.2184,-5.2058,-5.2058,-5.2057,-5.2057,-5.2056,-5.2261,-5.2269,-5.2264,-5.2276,-5.229,-5.2261,-5.2283,-5.2255,-5.223,-5.2246,-5.2248,-5.2247,-5.2241,-5.225,-5.225,-5.225,-5.2251,-5.2251,-5.2251,-5.2356,-5.2347,-5.2369,-5.2366,-5.2369,-5.2371,-5.2349,-5.2352,-5.2348,-5.2326,-5.2326,-5.2292,-5.2186,-5.2159,-5.2256,-5.2255,-5.2254,-5.2254,-5.2254,-5.2477,-5.2445,-5.2478,-5.2482,-5.2476,-5.2491,-5.2457,-5.2465,-5.2464,-5.2475,-5.2438,-5.2366,-5.2347,-5.2337,-5.2314,-5.2445,-5.2445,-5.2445,-5.2445,-5.2551,-5.254,-5.2566,-5.2574,-5.2578,-5.255,-5.2588,-5.2573,-5.2551,-5.2549,-5.2526,-5.2495,-5.2486,-5.2472,-5.246,-5.2437,-5.2597,-5.2597,-5.2597,-5.2623,-5.2611,-5.2648,-5.2626,-5.262,-5.2615,-5.265,-5.266,-5.263,-5.2603,-5.2546,-5.2539,-5.2487,-5.2473,-5.2441,-5.2422,-5.2381,0,0]},{"header":{"parameterUnit":"m.s-1","parameterCategory":1,"la1":30.2992,"la2":30.254,"lo1":-89.0895,"lo2":-89.0443,"dy":0.0025,"dx":0.0025,"nx":19,"ny":19,"refTime":"2026-05-19T03:00:00:Z","depth":0,"parameterNumber":3,"parameterNumberName":"V-component_of_WINDS"},"data":[0,0,0,4.4832,4.4832,4.484,4.484,4.4836,4.4836,0,0,0,0,0,0,0,0,0,0,0,4.4823,4.4822,4.4832,4.4832,4.484,4.484,4.4836,4.4836,0,0,0,0,0,0,0,0,0,0,0,4.4823,4.4822,4.4822,4.4832,4.484,4.484,4.4836,4.4835,0,0,0,0,0,0,0,0,0,0,4.4829,4.4814,4.4822,4.4822,4.4832,4.484,4.484,4.4835,4.4835,4.4827,0,4.482,0,4.4828,4.4835,4.4835,0,0,0,4.4837,4.4814,4.4823,4.4822,4.4832,4.484,4.4838,4.4835,4.4835,4.4827,4.482,4.482,4.4828,4.4835,4.4835,4.4779,4.4779,0,0,4.4836,4.482,4.4823,4.4823,4.4822,4.4837,4.4838,4.4835,4.4826,4.482,4.482,4.4828,4.4835,4.4835,4.478,4.4779,0,0,0,4.4832,4.4819,4.4828,4.4822,4.4825,4.4838,4.4838,4.4826,4.483,4.482,4.4828,4.4835,4.4835,4.478,4.4779,4.4742,0,0,0,4.4832,4.4817,4.4828,4.4818,4.4825,4.4826,4.4828,4.483,4.4831,4.4828,4.4835,4.4835,4.4781,4.478,4.4744,4.4726,0,0,0,4.4824,4.4816,4.4815,4.4817,4.482,4.4826,4.4831,4.4831,4.4835,4.4835,4.4835,4.4781,4.478,4.4746,4.4729,4.4708,0,0,0,4.4811,4.4779,4.4814,4.4781,4.482,4.4803,4.4831,4.4819,4.4814,4.4835,4.4781,4.478,4.4746,4.4732,4.471,4.4688,4.4677,0,0,4.4761,4.4772,4.4754,4.4786,4.4759,4.4803,4.477,4.478,4.4794,4.4783,4.4782,4.4743,4.473,4.4709,4.462,4.4611,0,0,0,4.4733,4.472,4.4716,4.4713,4.4721,4.4727,4.4744,4.4748,4.474,4.4786,4.4729,4.4722,4.471,4.47,4.4693,4.4684,4.4774,4.4774,4.4774,4.4638,4.466,4.4632,4.4655,4.465,4.467,4.4668,4.4677,4.4697,4.4684,4.4681,4.4625,4.4613,4.4607,4.4598,4.467,4.467,4.467,4.467,4.4568,4.4554,4.4585,4.4569,4.4592,4.4578,4.4595,4.4611,4.4601,4.4628,4.4619,4.4648,4.4597,4.459,4.4667,4.4668,4.4668,4.4668,4.4668,4.451,4.4507,4.4514,4.4512,4.4507,4.4531,4.4521,4.4541,4.4559,4.455,4.455,4.455,4.4554,4.4548,4.4548,4.4548,4.4548,4.4547,4.4547,4.4447,4.4456,4.4446,4.4454,4.4455,4.4459,4.4478,4.4479,4.4485,4.45,4.4501,4.4523,4.4588,4.4604,4.4544,4.4545,4.4545,4.4546,4.4546,4.437,4.4391,4.4376,4.4377,4.4388,4.4383,4.4409,4.441,4.4413,4.4408,4.4433,4.4477,4.4489,4.4495,4.4509,4.4428,4.4428,4.4428,4.4428,4.4321,4.433,4.432,4.4321,4.4324,4.4347,4.4328,4.4343,4.4361,4.4364,4.4379,4.4399,4.4404,4.4413,4.4421,4.4434,4.4336,4.4336,4.4336,4.4276,4.4286,4.4267,4.4288,4.4298,4.4306,4.429,4.4289,4.4313,4.4332,4.4368,4.4372,4.4404,4.4413,4.4433,4.4445,4.4469,0,0]}]]